CW9739 Weather Reports


time (UTC)temp
C
wind
direction
speed
KPH
gust
KPH
rain 1hr
cm
rain 24hr
cm
rain mn
cm
humidity
%
barometer
mb
20260506032011 7 149 4.8 11.3 0.00 0.00 0.00 76 1014.3
20260506031031 7 149 4.8 11.3 0.00 0.00 0.00 76 1014.3
20260506030052 7 149 4.8 11.3 0.00 0.00 0.00 76 1014.4
20260506025025 7 149 4.8 11.3 0.00 0.00 0.00 75 1014.4
20260506024048 7 149 4.8 11.3 0.00 0.00 0.00 75 1014.3
20260506023027 7 149 4.8 11.3 0.00 0.00 0.00 75 1014.3
20260506022041 7 149 4.8 11.3 0.00 0.00 0.00 75 1014.3
20260506021010 7 149 4.8 11.3 0.00 0.00 0.00 75 1014.3
20260506020032 7 149 4.8 11.3 0.00 0.00 0.00 75 1014.3
20260506015012 7 149 4.8 11.3 0.00 0.00 0.00 75 1014.4
20260506013956 7 149 4.8 11.3 0.00 0.00 0.00 74 1014.4
20260506012922 7 149 4.8 11.3 0.00 0.00 0.00 74 1014.4
20260506011913 7 149 4.8 11.3 0.00 0.00 0.00 74 1014.4
20260506010854 7 149 4.8 11.3 0.00 0.00 0.00 74 1014.5
20260506005830 7 149 4.8 11.3 0.00 0.00 0.00 74 1014.5
20260506004849 7 149 4.8 11.3 0.00 0.00 0.00 74 1014.4
20260506003847 7 149 4.8 11.3 0.00 0.00 0.00 74 1014.4
20260506002828 7 149 4.8 11.3 0.00 0.00 0.00 73 1014.5
20260506001820 7 149 4.8 11.3 0.00 0.00 0.00 73 1014.5
20260506000820 7 149 4.8 11.3 0.00 0.00 0.00 73 1014.5
20260505235753 7 149 4.8 11.3 0.00 0.00 0.00 73 1014.6
20260505234750 7 149 4.8 11.3 0.00 0.00 0.00 73 1014.6
20260505233812 8 149 4.8 11.3 0.00 0.00 0.00 73 1014.6
20260505232756 8 149 4.8 11.3 0.00 0.00 0.00 73 1014.6
20260505231802 8 149 4.8 11.3 0.00 0.00 0.00 73 1014.7
20260505230748 8 149 4.8 11.3 0.00 0.00 0.00 73 1014.7
20260505225734 8 344 4.8 11.3 0.00 0.00 0.00 75 1014.7
20260505224711 8 178 4.8 9.7 0.00 0.00 0.00 78 1014.7
20260505223708 8 173 4.8 14.5 0.00 0.00 0.00 78 1014.6
20260505222731 8 156 6.4 14.5 0.00 0.00 0.00 77 1014.6
20260505221745 8 169 4.8 12.9 0.00 0.00 0.00 76 1014.5
20260505220718 8 157 4.8 12.9 0.00 0.00 0.00 75 1014.5
20260505215737 8 177 6.4 14.5 0.00 0.00 0.00 75 1014.5
20260505214737 8 166 4.8 16.1 0.00 0.00 0.00 74 1014.5
20260505213712 8 170 4.8 17.7 0.00 0.00 0.00 75 1014.6
20260505212726 8 110 6.4 14.5 0.00 0.00 0.00 74 1014.5
20260505211710 9 159 4.8 12.9 0.00 0.00 0.00 73 1014.4
20260505210152 9 205 3.2 8.0 0.00 0.00 0.00 72 1014.4
20260505205840 9 155 4.8 14.5 0.00 0.00 0.00 72 1014.3
20260505204855 9 169 6.4 17.7 0.00 0.00 0.00 72 1014.3
20260505203831 9 140 6.4 17.7 0.00 0.00 0.00 72 1014.3
20260505202816 10 144 4.8 8.0 0.00 0.00 0.00 76 1014.2
20260505201954 10 177 4.8 14.5 0.00 0.00 0.00 77 1014.2
20260505200942 10 163 4.8 12.9 0.00 0.00 0.00 76 1014.0
20260505195921 10 94 4.8 11.3 0.00 0.00 0.00 77 1014.0
20260505194933 10 180 4.8 11.3 0.00 0.00 0.00 76 1014.0
20260505193955 10 116 4.8 17.7 0.00 0.00 0.00 76 1013.8
20260505193004 10 159 6.4 17.7 0.00 0.00 0.00 76 1013.8
20260505191942 10 110 6.4 14.5 0.00 0.00 0.00 75 1013.6
20260505190959 11 201 6.4 9.7 0.00 0.00 0.00 74 1013.5
20260505185945 11 176 6.4 14.5 0.00 0.00 0.00 73 1013.5
20260505184921 11 146 6.4 16.1 0.00 0.00 0.00 72 1013.4
20260505183907 11 148 6.4 16.1 0.00 0.00 0.00 71 1013.2
20260505182846 12 163 6.4 12.9 0.00 0.00 0.00 70 1013.0
20260505181839 12 132 3.2 9.7 0.00 0.00 0.00 63 1012.9
20260505180901 12 225 1.6 6.4 0.00 0.00 0.00 63 1012.9
20260505175925 12 192 3.2 9.7 0.00 0.00 0.00 62 1013.0
20260505174922 12 304 3.2 9.7 0.00 0.00 0.00 62 1013.1
20260505173857 13 178 3.2 9.7 0.00 0.00 0.00 62 1013.0
20260505172853 13 203 3.2 12.9 0.00 0.00 0.00 62 1012.9
20260505171856 13 21 4.8 14.5 0.00 0.00 0.00 60 1012.9
20260505170909 13 34 4.8 14.5 0.00 0.00 0.00 60 1012.9
20260505165904 13 186 3.2 9.7 0.00 0.00 0.00 60 1012.9
20260505164858 13 211 3.2 8.0 0.00 0.00 0.00 59 1012.9
20260505163912 13 196 3.2 8.0 0.00 0.00 0.00 60 1012.7
20260505162937 13 203 1.6 6.4 0.00 0.00 0.00 59 1012.7
20260505161954 13 122 3.2 8.0 0.00 0.00 0.00 57 1012.7
20260505161004 13 298 3.2 8.0 0.00 0.00 0.00 59 1012.8
20260505152945 13 250 3.2 6.4 0.00 0.00 0.00 59 1013.0
20260505151942 13 231 1.6 6.4 0.00 0.00 0.00 60 1013.0
20260505151004 13 165 1.6 6.4 0.00 0.00 0.00 59 1012.9
20260505122609 13 7 4.8 9.7 0.00 0.00 0.00 64 1013.1
20260505121615 13 276 4.8 11.3 0.00 0.00 0.00 63 1013.1
20260505120614 14 209 3.2 16.1 0.00 0.00 0.00 64 1013.2
20260505114539 13 266 4.8 9.7 0.00 0.00 0.00 64 1013.1
20260505113547 13 197 4.8 11.3 0.00 0.00 0.00 65 1013.2
20260505112605 13 249 4.8 11.3 0.00 0.00 0.00 65 1013.3
20260505110431 13 276 3.2 9.7 0.00 0.00 0.00 65 1013.4
20260505101206 13 327 4.8 14.5 0.00 0.00 0.00 70 1013.5
20260505100207 12 221 4.8 12.9 0.00 0.00 0.00 72 1013.6
20260505095153 12 228 4.8 11.3 0.00 0.00 0.00 70 1013.6
20260505094159 13 234 9.7 22.5 0.00 0.00 0.00 71 1013.6
20260505093206 12 252 4.8 22.5 0.00 0.00 0.00 72 1013.7
20260505092225 12 272 3.2 14.5 0.00 0.00 0.00 75 1013.6
20260505091239 11 69 4.8 14.5 0.00 0.00 0.00 75 1013.6
20260505090208 11 201 3.2 9.7 0.00 0.00 0.00 77 1013.6
20260505085227 11 255 3.2 6.4 0.00 0.00 0.00 78 1013.8
20260505084229 11 295 3.2 8.0 0.00 0.00 0.00 80 1013.9
20260505082129 10 192 4.8 9.7 0.00 0.00 0.00 82 1014.0
20260505081135 10 222 3.2 9.7 0.00 0.00 0.00 84 1014.1
20260505075056 9 330 3.2 17.7 0.00 0.00 0.00 86 1014.0
20260505074027 8 15 6.4 17.7 0.00 0.00 0.00 88 1014.0
20260505073032 8 225 8.0 12.9 0.00 0.00 0.00 90 1014.0
20260505072002 8 234 8.0 14.5 0.00 0.00 0.00 90 1014.0
20260505065820 7 250 6.4 9.7 0.00 0.00 0.00 90 1014.2
20260505064835 7 203 4.8 8.0 0.00 0.00 0.00 90 1014.2
20260505063816 7 191 4.8 9.7 0.00 0.00 0.00 90 1014.2
20260505062757 7 193 4.8 9.7 0.00 0.00 0.00 90 1014.2
20260505061805 7 277 3.2 6.4 0.00 0.00 0.00 90 1014.0
20260505060819 7 213 4.8 9.7 0.00 0.00 0.00 90 1014.1
20260505055831 7 255 4.8 9.7 0.00 0.00 0.00 90 1014.0
20260505053732 6 249 6.4 11.3 0.00 0.00 0.00 90 1014.2
20260505052712 6 225 6.4 12.9 0.00 0.00 0.00 90 1014.4
20260505051649 6 222 6.4 12.9 0.00 0.00 0.00 90 1014.2
20260505050617 6 202 6.4 9.7 0.00 0.00 0.00 90 1014.2
20260505041528 6 212 3.2 9.7 0.00 0.00 0.00 90 1013.9
20260505035428 6 235 6.4 12.9 0.00 0.00 0.00 89 1013.8
20260505034423 7 221 6.4 12.9 0.00 0.00 0.00 89 1014.0
20260505033424 7 219 6.4 9.7 0.00 0.00 0.00 90 1013.9
20260505032359 7 213 4.8 6.4 0.00 0.00 0.00 90 1014.0